Back to catalog

STARLINK-5356

AliveCommunicationsVLEO
NORAD 56418·PAYLOAD·🇺🇸 United States

Launched May 4, 2023 from Cape Canaveral Space Force Station

Loading…

Next Passes (next 24 hours)

TLE

FreshSource: CelesTrak SupGP

Epoch: Sep 14, 2026, 14:56 UTC

1 56418C 23061AW  26257.62270833 -.00002123  00000+0 -76876-4 0  2573
2 56418  43.0034 192.4049 0001377 264.3353 192.0730 15.27579149    16

Track STARLINK-5356 in real time with AllMySat

Download on the App Store